Tracking 22124 objects as of 25-Jan-2021
HD Live streaming from Space Station
objects crossing your sky now

STARLINK-1265

Track STARLINK-1265 now!
10-day predictions
STARLINK-1265 is classified as:


NORAD ID: 45406
Int'l Code: 2020-019AY
Perigee: 553.1 km
Apogee: 555.4 km
Inclination: 53.0 °
Period: 95.6 minutes
Semi major axis: 6925 km
RCS: Unknown
Launch date: March 18, 2020
Source: United States (US)
Launch site: AIR FORCE EASTERN TEST RANGE (AFETR)
aabbcc
Your satellite tracking list
Your tracking list is empty




NASA's NSSDC Master Catalog

Two Line Element Set (TLE):
1 45406U 20019AY  21025.05367669  .00017759  00000-0  12071-2 0  9995
2 45406  53.0315 249.7095 0001667  88.0643 272.0537 15.06431369 48065
Source of the keplerian elements: AFSPC